FW5142 Weather Reports


Display with metric or nautical units.
time (UTC)temp
F
wind
direction
speed
MPH
gust
MPH
rain 1hr
in
rain 24hr
in
rain mn
in
humidity
%
barometer
mb
20260506014600 56 0 11.0 18.0 0.00 0.00 0.00 67 1009.3
20260506014059 56 0 11.0 17.0 0.00 0.00 0.00 67 1009.3
20260506013558 56 0 11.0 17.0 0.00 0.00 0.00 67 1009.3
20260506012100 57 0 11.0 18.0 0.00 0.00 0.00 67 1008.7
20260506011601 57 0 11.0 16.0 0.00 0.00 0.00 67 1008.6
20260506011059 57 0 11.0 17.0 0.00 0.00 0.00 66 1008.6
20260506010559 57 0 10.0 17.0 0.00 0.00 0.00 66 1008.4
20260506005558 58 0 10.0 18.0 0.00 0.00 0.00 66 1008.4
20260506004558 58 0 11.0 19.0 0.00 0.00 0.00 65 1008.3
20260506004053 58 0 11.0 19.0 0.00 0.00 0.00 65 1007.9
20260506003547 58 0 11.0 19.0 0.00 0.00 0.00 65 1008.1
20260506003040 58 71 11.0 18.0 0.00 0.00 0.00 64 1007.9
20260506002535 59 0 12.0 19.0 0.00 0.00 0.00 64 1007.8
20260506001523 59 0 12.0 19.0 0.00 0.00 0.00 64 1008.0
20260506000514 59 0 10.0 18.0 0.00 0.00 0.00 64 1008.0
20260506000014 60 0 11.0 18.0 0.00 0.00 0.00 63 1007.9
20260505235519 60 0 12.0 21.0 0.00 0.00 0.00 63 1007.7
20260505235015 60 0 13.0 21.0 0.00 0.00 0.00 63 1007.4
20260505234514 60 0 12.0 21.0 0.00 0.00 0.00 63 1007.7
20260505234014 61 0 12.0 19.0 0.00 0.00 0.00 63 1007.7
20260505233515 61 0 12.0 19.0 0.00 0.00 0.00 62 1007.4
20260505233014 61 0 12.0 18.0 0.00 0.00 0.00 62 1007.5
20260505232014 62 0 11.0 17.0 0.00 0.00 0.00 62 1007.4
20260505231513 62 0 11.0 18.0 0.00 0.00 0.00 62 1007.1
20260505231012 62 0 12.0 18.0 0.00 0.00 0.00 61 1007.2
20260505230513 62 0 11.0 18.0 0.00 0.00 0.00 61 1007.1
20260505225513 63 0 11.0 18.0 0.00 0.00 0.00 60 1007.5
20260505225011 63 0 11.0 20.0 0.00 0.00 0.00 59 1007.5
20260505224514 64 67 12.0 20.0 0.00 0.00 0.00 58 1007.1
20260505224006 64 327 11.0 18.0 0.00 0.00 0.00 58 1007.2
20260505223500 65 0 11.0 18.0 0.00 0.00 0.00 57 1007.5
20260505222954 65 0 10.0 17.0 0.00 0.00 0.00 56 1007.4
20260505222449 66 0 8.0 17.0 0.00 0.00 0.00 55 1007.3
20260505220944 67 0 7.0 17.0 0.00 0.00 0.00 53 1007.5
20260505220424 68 0 7.0 14.0 0.00 0.00 0.00 52 1007.3
20260505215919 68 14 7.0 14.0 0.00 0.00 0.00 52 1007.3
20260505215412 68 0 8.0 16.0 0.00 0.00 0.00 52 1007.3
20260505214907 69 0 9.0 18.0 0.00 0.00 0.00 51 1007.4
20260505214401 69 0 9.0 18.0 0.00 0.00 0.00 51 1007.5
20260505213854 69 0 9.0 18.0 0.00 0.00 0.00 49 1007.4
20260505212842 70 0 8.0 20.0 0.00 0.00 0.00 48 1007.3
20260505212337 71 26 7.0 15.0 0.00 0.00 0.00 47 1007.3
20260505211830 71 0 7.0 14.0 0.00 0.00 0.00 47 1007.4
20260505211337 71 22 8.0 14.0 0.00 0.00 0.00 47 1007.6
20260505210819 71 0 7.0 14.0 0.00 0.00 0.00 46 1007.5
20260505205806 72 72 7.0 18.0 0.00 0.00 0.00 45 1007.3
20260505205300 72 0 6.0 18.0 0.00 0.00 0.00 44 1007.4
20260505204754 72 0 6.0 13.0 0.00 0.00 0.00 45 1007.4
20260505204248 72 0 7.0 15.0 0.00 0.00 0.00 45 1007.4
20260505203743 72 0 6.0 15.0 0.00 0.00 0.00 45 1007.5
20260505203236 72 35 6.0 16.0 0.00 0.00 0.00 45 1007.2
20260505202224 72 17 6.0 13.0 0.00 0.00 0.00 45 1007.2
20260505201213 72 0 8.0 20.0 0.00 0.00 0.00 45 1007.2
20260505200707 72 0 7.0 17.0 0.00 0.00 0.00 45 1006.9
20260505200200 72 0 6.0 13.0 0.00 0.00 0.00 45 1006.9
20260505195149 72 0 6.0 14.0 0.00 0.00 0.00 45 1006.9
20260505194643 72 46 6.0 13.0 0.00 0.00 0.00 46 1007.0
20260505194137 72 0 6.0 13.0 0.00 0.00 0.00 45 1007.0
20260505193631 72 313 6.0 12.0 0.00 0.00 0.00 45 1007.2
20260505193125 72 0 6.0 13.0 0.00 0.00 0.00 45 1007.0
20260505192113 72 0 7.0 15.0 0.00 0.00 0.00 45 1007.0
20260505191101 73 0 8.0 20.0 0.00 0.00 0.00 45 1006.9
20260505190555 73 0 9.0 16.0 0.00 0.00 0.00 45 1006.8
20260505185544 73 0 8.0 16.0 0.00 0.00 0.00 45 1006.7
20260505185043 73 67 6.0 15.0 0.00 0.00 0.00 46 1006.9
20260505184041 73 0 8.0 19.0 0.00 0.00 0.00 47 1007.1
20260505183539 72 0 7.0 19.0 0.00 0.00 0.00 47 1007.2
20260505183038 72 0 6.0 13.0 0.00 0.00 0.00 49 1007.0
20260505182540 72 0 6.0 15.0 0.00 0.00 0.00 49 1007.0
20260505182035 72 329 7.0 17.0 0.00 0.00 0.00 49 1007.0
20260505181536 72 0 8.0 18.0 0.00 0.00 0.00 48 1006.8
20260505180535 72 0 7.0 15.0 0.00 0.00 0.00 49 1007.1
20260505180034 72 0 8.0 16.0 0.00 0.00 0.00 49 1006.9
20260505175535 72 0 8.0 16.0 0.00 0.00 0.00 49 1006.8
20260505175033 72 0 8.0 16.0 0.00 0.00 0.00 49 1007.0
20260505174535 72 0 7.0 17.0 0.00 0.00 0.00 50 1007.1
20260505174035 72 0 7.0 17.0 0.00 0.00 0.00 49 1006.7
20260505173531 72 0 8.0 17.0 0.00 0.00 0.00 50 1006.9
20260505173031 72 0 8.0 16.0 0.00 0.00 0.00 51 1006.7
20260505172530 72 342 8.0 16.0 0.00 0.00 0.00 51 1006.9
20260505172029 72 305 9.0 17.0 0.00 0.00 0.00 52 1007.1
20260505171530 73 0 9.0 17.0 0.00 0.00 0.00 52 1007.2
20260505171031 73 323 8.0 19.0 0.00 0.00 0.00 51 1006.7
20260505170531 73 0 8.0 19.0 0.00 0.00 0.00 51 1006.7
20260505170030 73 0 8.0 17.0 0.00 0.00 0.00 52 1006.6
20260505165530 73 0 7.0 17.0 0.00 0.00 0.00 52 1006.2
20260505165025 74 42 7.0 15.0 0.00 0.00 0.00 53 1006.0
20260505164527 74 0 8.0 18.0 0.00 0.00 0.00 52 1005.9
20260505164026 74 0 8.0 18.0 0.00 0.00 0.00 53 1005.8
20260505163025 74 0 7.0 14.0 0.00 0.00 0.00 55 1005.6
20260505162026 74 0 7.0 16.0 0.00 0.00 0.00 55 1005.4
20260505161527 75 0 7.0 16.0 0.00 0.00 0.00 55 1005.3
20260505161026 75 0 7.0 16.0 0.00 0.00 0.00 55 1005.1
20260505160521 75 79 6.0 16.0 0.00 0.00 0.00 55 1004.8
20260505153021 76 0 9.0 20.0 0.00 0.00 0.00 57 1004.4
20260505152019 76 0 8.0 17.0 0.00 0.00 0.00 55 1004.3
20260505151519 76 0 9.0 24.0 0.00 0.00 0.00 55 1004.3
20260505151020 76 299 9.0 24.0 0.00 0.00 0.00 54 1004.2
20260505150518 76 0 9.0 19.0 0.00 0.00 0.00 52 1004.3
20260505140507 76 311 8.0 15.0 0.00 0.00 0.00 29 1003.1
20260505125000 72 0 4.0 9.0 0.00 0.00 0.00 58 1001.2
20260505123954 72 244 4.0 9.0 0.00 0.00 0.00 59 1001.0
20260505123449 72 0 5.0 9.0 0.00 0.00 0.00 59 1001.1
20260505122941 72 0 5.0 9.0 0.00 0.00 0.00 59 1000.9
20260505122436 72 0 5.0 10.0 0.00 0.00 0.00 59 1000.8
20260505121930 72 0 6.0 10.0 0.00 0.00 0.00 58 1000.9
20260505115400 73 0 6.0 10.0 0.00 0.00 0.00 57 1000.6
20260505114854 73 0 6.0 10.0 0.00 0.00 0.00 57 1000.5
20260505114347 73 0 6.0 12.0 0.00 0.00 0.00 57 1000.5
20260505113842 73 0 7.0 13.0 0.00 0.00 0.00 57 1000.5
20260505113336 73 0 8.0 14.0 0.00 0.00 0.00 57 1000.3
20260505112830 74 0 9.0 14.0 0.00 0.00 0.00 56 1000.2
20260505112324 74 0 9.0 14.0 0.00 0.00 0.00 56 1000.0
20260505111818 74 0 9.0 14.0 0.00 0.00 0.00 56 1000.0
20260505111312 74 0 8.0 14.0 0.00 0.00 0.00 56 1000.0
20260505110806 74 0 7.0 13.0 0.00 0.00 0.00 55 1000.1
20260505102212 75 0 9.0 17.0 0.00 0.00 0.00 55 999.6
20260505101706 75 0 9.0 13.0 0.00 0.00 0.00 54 999.6
20260505101200 75 0 9.0 13.0 0.00 0.00 0.00 54 999.7
20260505100147 75 0 9.0 14.0 0.00 0.00 0.00 54 999.7
20260505094630 75 0 9.0 14.0 0.00 0.00 0.00 53 999.5
20260505094124 76 0 9.0 15.0 0.00 0.00 0.00 52 999.5
20260505093617 76 0 9.0 15.0 0.00 0.00 0.00 52 999.5
20260505093111 76 0 8.0 14.0 0.00 0.00 0.00 52 999.5
20260505092606 76 0 8.0 14.0 0.00 0.00 0.00 52 999.4
20260505092100 76 0 8.0 14.0 0.00 0.00 0.00 52 999.4
20260505091553 76 0 8.0 13.0 0.00 0.00 0.00 52 999.4
20260505091048 76 0 8.0 14.0 0.00 0.00 0.00 51 999.6
20260505090036 76 0 8.0 13.0 0.00 0.00 0.00 51 999.6
20260505085531 77 0 8.0 14.0 0.00 0.00 0.00 51 999.5
20260505085031 77 0 9.0 14.0 0.00 0.00 0.00 51 999.6
20260505084031 77 0 9.0 15.0 0.00 0.00 0.00 51 999.7
20260505083032 76 0 9.0 16.0 0.00 0.00 0.00 51 999.7
20260505082531 76 0 9.0 16.0 0.00 0.00 0.00 52 999.7
20260505081528 76 0 9.0 15.0 0.00 0.00 0.00 52 999.9
20260505081026 76 0 8.0 15.0 0.00 0.00 0.00 53 999.9
20260505080527 75 0 9.0 15.0 0.00 0.00 0.00 53 999.8
20260505075527 74 0 9.0 15.0 0.00 0.00 0.00 54 999.9
20260505075028 73 0 9.0 14.0 0.00 0.00 0.00 55 999.9
20260505074527 73 0 8.0 13.0 0.00 0.00 0.00 56 999.9
20260505074028 72 0 6.0 13.0 0.00 0.00 0.00 55 999.9
20260505073528 71 0 4.0 12.0 0.00 0.00 0.00 54 1000.0
20260505072516 71 0 2.0 8.0 0.00 0.00 0.00 51 1000.2
20260505072010 71 0 1.0 5.0 0.00 0.00 0.00 50 1000.2
20260505071503 70 0 1.0 4.0 0.00 0.00 0.00 49 1000.2
20260505071001 71 0 1.0 5.0 0.00 0.00 0.00 48 1000.2
20260505070001 71 0 0.0 3.0 0.00 0.00 0.00 47 1000.4
20260505065502 71 0 0.0 3.0 0.00 0.00 0.00 46 1000.3
20260505065001 71 0 0.0 2.0 0.00 0.00 0.00 46 1000.3
20260505064500 71 0 0.0 1.0 0.00 0.00 0.00 46 1000.4
20260505064001 72 0 1.0 3.0 0.00 0.00 0.00 46 1000.5
20260505063001 72 0 2.0 4.0 0.00 0.00 0.00 45 1000.7
20260505062500 72 0 2.0 4.0 0.00 0.00 0.00 46 1000.7
20260505062001 73 0 3.0 8.0 0.00 0.00 0.00 47 1000.7
20260505061500 73 0 2.0 8.0 0.00 0.00 0.00 47 1000.7
20260505061002 74 0 1.0 5.0 0.00 0.00 0.00 49 1000.8
20260505060500 74 0 1.0 4.0 0.00 0.00 0.00 50 1000.8
20260505060002 74 0 2.0 4.0 0.00 0.00 0.00 51 1000.9
20260505055500 74 0 2.0 4.0 0.00 0.00 0.00 51 1000.8
20260505055002 75 0 2.0 5.0 0.00 0.00 0.00 51 1000.8
20260505054500 75 0 2.0 5.0 0.00 0.00 0.00 51 1000.8
20260505054001 75 0 2.0 4.0 0.00 0.00 0.00 51 1000.7
20260505053500 76 0 2.0 4.0 0.00 0.00 0.00 52 1000.7
20260505052502 76 0 2.0 9.0 0.00 0.00 0.00 52 1000.8
20260505052003 77 0 4.0 9.0 0.00 0.00 0.00 52 1000.8
20260505051458 77 0 3.0 6.0 0.00 0.00 0.00 51 1001.0
20260505050958 77 0 2.0 5.0 0.00 0.00 0.00 50 1000.9
20260505050459 78 0 2.0 5.0 0.00 0.00 0.00 50 1000.9
20260505041406 80 0 3.0 8.0 0.00 0.00 0.00 50 1000.9
20260505040900 80 0 3.0 8.0 0.00 0.00 0.00 50 1000.9
20260505040355 80 0 3.0 9.0 0.00 0.00 0.00 50 1000.9
20260505035848 80 0 4.0 9.0 0.00 0.00 0.00 50 1000.9
20260505035343 81 0 4.0 8.0 0.00 0.00 0.00 50 1001.0
20260505034837 81 0 3.0 8.0 0.00 0.00 0.00 50 1001.0
20260505034330 81 0 3.0 8.0 0.00 0.00 0.00 49 1001.0
20260505033825 81 0 4.0 8.0 0.00 0.00 0.00 49 1000.9
20260505033319 82 0 4.0 9.0 0.00 0.00 0.00 48 1000.9
20260505032813 82 0 4.0 9.0 0.00 0.00 0.00 48 1000.9
20260505032306 82 0 4.0 9.0 0.00 0.00 0.00 48 1001.0
20260505031800 82 0 5.0 10.0 0.00 0.00 0.00 47 1001.0
20260505031254 83 0 5.0 10.0 0.00 0.00 0.00 47 1001.0
20260505030243 83 0 5.0 11.0 0.00 0.00 0.00 46 1000.7
20260505025736 83 0 5.0 11.0 0.00 0.00 0.00 46 1000.7
20260505025231 83 0 6.0 12.0 0.00 0.00 0.00 46 1000.7
20260505024725 83 0 6.0 16.0 0.00 0.00 0.00 46 1000.8
20260505024219 83 0 6.0 16.0 0.00 0.00 0.00 45 1000.7
20260505023712 84 0 5.0 13.0 0.00 0.00 0.00 44 1000.7
20260505023207 84 0 2.0 12.0 0.00 0.00 0.00 44 1000.7
20260505022155 84 0 3.0 12.0 0.00 0.00 0.00 43 1000.8
20260505021143 85 0 7.0 15.0 0.00 0.00 0.00 43 1000.7
20260505020131 85 0 5.0 12.0 0.00 0.00 0.00 42 1000.8